Tracking 18795 objects as of 22-August-2017
HD Live streaming from Space Station
objects crossing your sky now

COSMOS 1803

Track COSMOS 1803 now!
10-day predictions
COSMOS 1803 is classified as:


NORAD ID: 17177
Int'l Code: 1986-094A
Perigee: 1,505.2 km
Apogee: 1,509.1 km
Inclination: 82.6 °
Period: 116.0 minutes
Semi major axis: 7878 km
RCS: 10.2434 m2 (large)
Launch date: December 2, 1986
Source: Commonwealth of Independent States (former USSR) (CIS)
Launch site: PLESETSK MISSILE AND SPACE COMPLEX (PKMTR)
Your satellite tracking list
Your tracking list is empty





NASA's NSSDC Master Catalog

Two Line Element Set (TLE):
1 17177U 86094A   17234.26641064 +.00000002 +00000-0 -59665-4 0  9994
2 17177 082.6081 180.5440 0002458 275.3969 240.8682 12.41551914392256
Source of the keplerian elements: AFSPC